Worcester, MA

4:24 AM EDT on May 25, 2017 (GMT -0400)
Worcester Regional

Weather History for KORH - October, 2012

Change the Weather History Date:

Thursday, October 4, 2012

  Actual Average Record
Temperature  
Mean Temperature 60 °F 54 °F  
Max Temperature 62 °F 63 °F 85 °F (1931)
Min Temperature 58 °F 46 °F 27 °F (1945)
Degree Days  
Heating Degree Days 5 11  
Month to date heating degree days 26 42  
Since 1 July heating degree days 162 235  
Cooling Degree Days 0 0  
Month to date cooling degree days 0 0  
Year to date cooling degree days 674 468  
Growing Degree Days 10 (Base 50)    
Moisture  
Dew Point 59 °F    
Average Humidity 97    
Maximum Humidity 100    
Minimum Humidity 93    
Precipitation  
Precipitation 0.03 in 0.16 in 1.89 in (1987)
Month to date precipitation 0.23 0.63  
Year to date precipitation 33.65 35.92  
Snow  
Snow 0.00 in 0.00 in T in (1965)
Month to date snowfall 0.0 0.0  
Since 1 July snowfall 0.0 0.0  
Since 1 September snowfall 0.0 0.0  
Snow Depth -    
Sea Level Pressure  
Sea Level Pressure 30.13 in    
Wind  
Wind Speed 4 mph (NE)    
Max Wind Speed 12 mph    
Max Gust Speed 15 mph    
Visibility 1 miles    
Events Fog , Rain    
T = Trace of Precipitation, MM = Missing Value Source: NWS Daily Summary

Daily Weather History Graph

Daily Weather History Graph

Search for Another Location

Airport or City:

Trip Planner

Search our weather history database for the weather conditions in past years. The results will help you decide how hot, cold, wet, or windy it might be!

Date:

Astronomy

Oct. 04, 2012 Rise Set
Actual Time 6:48 AM EDT 6:23 PM EDT
Civil Twilight 6:20 AM EDT 6:51 PM EDT
Nautical Twilight 5:47 AM EDT 7:23 PM EDT
Astronomical Twilight 5:15 AM EDT 7:56 PM EDT
Moon 8:51 PM EDT (10/4) 11:07 AM EDT (10/4)
Length of Visible Light 12h 30m
Length of Day
11h 34m
Waning Gibbous, 82% of the Moon is Illuminated
Oct 4
Waning Gibbous
Oct 8
Last Quarter
Oct 15
New
Oct 21
First Quarter
Oct 29
Full

Hourly Weather History & Observations

Time (EDT) Temp. Dew Point Humidity Pressure Visibility Wind Dir Wind Speed Gust Speed Precip Events Conditions
12:34 AM 60.8 °F 59.0 °F 94% 30.16 in 0.2 mi NE 4.6 mph - N/A Fog Fog
12:54 AM 60.1 °F 59.0 °F 96% 30.17 in 0.2 mi NE 5.8 mph - N/A Fog Fog
1:19 AM 59.0 °F 59.0 °F 100% 30.17 in 0.2 mi Calm Calm - N/A Fog Fog
1:38 AM 59.0 °F 59.0 °F 100% 30.17 in 0.2 mi ENE 4.6 mph - N/A Fog Fog
1:54 AM 59.0 °F 57.9 °F 96% 30.17 in 0.2 mi ENE 4.6 mph - N/A Fog Fog
2:54 AM 59.0 °F 57.9 °F 96% 30.16 in 0.2 mi NE 5.8 mph - N/A Fog Fog
3:16 AM 59.0 °F 57.2 °F 94% 30.16 in 0.2 mi NE 3.5 mph - N/A Fog Fog
3:43 AM 59.0 °F 57.2 °F 94% 30.16 in 0.2 mi Calm Calm - N/A Fog Fog
3:54 AM 59.0 °F 57.9 °F 96% 30.16 in 0.2 mi NNE 3.5 mph - N/A Fog Fog
4:12 AM 57.2 °F 57.2 °F 100% 30.16 in 0.2 mi NE 3.5 mph - N/A Fog Fog
4:54 AM 57.9 °F 57.9 °F 100% 30.17 in 0.5 mi NE 4.6 mph - N/A Fog Fog
5:03 AM 57.2 °F 57.2 °F 100% 30.16 in 0.2 mi NE 4.6 mph - N/A Fog Fog
5:37 AM 57.2 °F 57.2 °F 100% 30.16 in 0.2 mi NE 4.6 mph - N/A Fog Fog
5:54 AM 57.9 °F 57.0 °F 97% 30.17 in 0.2 mi NE 4.6 mph - N/A Fog Fog
6:03 AM 57.2 °F 57.2 °F 100% 30.17 in 0.5 mi NNE 4.6 mph - N/A Fog Fog
6:15 AM 57.2 °F 57.2 °F 100% 30.17 in 0.2 mi NNE 3.5 mph - N/A Fog Fog
6:35 AM 57.2 °F 57.2 °F 100% 30.16 in 0.2 mi NE 4.6 mph - 0.00 in Fog Fog
6:54 AM 57.9 °F 57.0 °F 97% 30.16 in 0.2 mi NE 8.1 mph - 0.00 in Fog Fog
7:45 AM 57.2 °F 57.2 °F 100% 30.17 in 0.2 mi ENE 4.6 mph - 0.00 in Fog Fog
7:54 AM 57.9 °F 57.9 °F 100% 30.17 in 0.2 mi ENE 5.8 mph - 0.00 in Fog Fog
8:54 AM 57.9 °F 57.9 °F 100% 30.17 in 0.2 mi NE 3.5 mph - N/A Fog Fog
9:16 AM 57.2 °F 57.2 °F 100% 30.18 in 0.2 mi Calm Calm - N/A Fog Fog
9:20 AM 57.2 °F 57.2 °F 100% 30.18 in 0.2 mi Calm Calm - N/A Fog Fog
9:27 AM 57.2 °F 57.2 °F 100% 30.18 in 0.2 mi Calm Calm - N/A Fog Fog
9:54 AM 59.0 °F 57.9 °F 96% 30.18 in 0.2 mi NNE 4.6 mph - 0.01 in Fog , Rain Light Rain
10:26 AM 59.0 °F 59.0 °F 100% 30.16 in 0.2 mi NE 4.6 mph - 0.00 in Fog , Rain Light Rain
10:46 AM 59.0 °F 59.0 °F 100% 30.16 in 0.5 mi NE 5.8 mph - 0.00 in Fog Fog
10:54 AM 59.0 °F 57.9 °F 96% 30.17 in 0.5 mi NE 4.6 mph - 0.00 in Fog Fog
11:02 AM 59.0 °F 57.2 °F 94% 30.17 in 3.0 mi ENE 3.5 mph - N/A   Overcast
11:09 AM 59.0 °F 59.0 °F 100% 30.17 in 1.0 mi ENE 3.5 mph - N/A   Overcast
11:54 AM 60.1 °F 59.0 °F 96% 30.17 in 1.0 mi Calm Calm - 0.00 in Rain Light Rain
12:54 PM 61.0 °F 59.0 °F 93% 30.15 in 1.0 mi Calm Calm - 0.00 in Rain Light Rain
1:17 PM 60.8 °F 59.0 °F 94% 30.13 in 0.2 mi Variable 3.5 mph - 0.00 in   Overcast
1:54 PM 61.0 °F 59.0 °F 93% 30.12 in 2.0 mi Calm Calm - 0.00 in   Overcast
2:09 PM 60.8 °F 59.0 °F 94% 30.11 in 0.2 mi Variable 4.6 mph - N/A Fog Fog
2:35 PM 60.8 °F 59.0 °F 94% 30.10 in 0.2 mi Calm Calm - N/A Fog Fog
2:54 PM 60.1 °F 59.0 °F 96% 30.09 in 0.2 mi ENE 5.8 mph - N/A Fog Fog
3:40 PM 60.8 °F 59.0 °F 94% 30.09 in 0.2 mi West 4.6 mph - N/A   Mist
3:54 PM 60.1 °F 59.0 °F 96% 30.09 in 1.0 mi West 3.5 mph - 0.00 in Rain Light Rain
4:54 PM 61.0 °F 60.1 °F 97% 30.08 in 1.2 mi East 3.5 mph - 0.00 in   Overcast
5:40 PM 60.8 °F 60.8 °F 100% 30.09 in 0.5 mi Calm Calm - N/A   Overcast
5:54 PM 61.0 °F 60.1 °F 97% 30.08 in 0.5 mi ESE 3.5 mph - N/A   Overcast
6:54 PM 61.0 °F 60.1 °F 97% 30.09 in 0.5 mi South 3.5 mph - N/A Fog Fog
7:06 PM 60.8 °F 60.8 °F 100% 30.07 in 0.5 mi SE 4.6 mph - 0.00 in Fog , Rain Light Rain
7:18 PM 60.8 °F 60.8 °F 100% 30.07 in 0.2 mi SE 3.5 mph - 0.00 in Fog Fog
7:54 PM 61.0 °F 60.1 °F 97% 30.07 in 0.2 mi Calm Calm - 0.00 in Fog , Rain Light Rain
8:01 PM 60.8 °F 60.8 °F 100% 30.07 in 0.5 mi SW 3.5 mph - 0.00 in Fog , Rain Light Rain
8:54 PM 61.0 °F 60.1 °F 97% 30.06 in 0.5 mi SSW 3.5 mph - 0.01 in Fog , Rain Light Rain
9:01 PM 60.8 °F 60.8 °F 100% 30.05 in 0.2 mi South 4.6 mph - 0.01 in Fog , Rain Light Rain
9:26 PM 60.8 °F 60.8 °F 100% 30.05 in 0.2 mi SSW 3.5 mph - 0.01 in Fog , Rain Light Rain
9:54 PM 61.0 °F 61.0 °F 100% 30.06 in 0.5 mi West 3.5 mph - 0.01 in Fog Fog
10:25 PM 62.6 °F 60.8 °F 94% 30.06 in 1.0 mi West 4.6 mph - N/A   Mist
10:36 PM 62.6 °F 60.8 °F 94% 30.06 in 0.5 mi West 3.5 mph - N/A Fog Fog
10:46 PM 62.6 °F 60.8 °F 94% 30.05 in 0.2 mi WSW 5.8 mph - N/A Fog Fog
10:54 PM 62.1 °F 61.0 °F 96% 30.06 in 0.5 mi WSW 5.8 mph - N/A Fog Fog
11:19 PM 62.6 °F 60.8 °F 94% 30.06 in 2.0 mi West 9.2 mph - N/A   Overcast
11:28 PM 62.6 °F 60.8 °F 94% 30.06 in 7.0 mi West 8.1 mph - N/A   Overcast
11:54 PM 62.1 °F 61.0 °F 96% 30.06 in 9.0 mi West 8.1 mph - N/A   Overcast